EW9904 Weather Reports


time (UTC)temp
F
wind
direction
speed
knots
gust
knots
rain 1hr
in
rain 24hr
in
rain mn
in
humidity
%
barometer
mb
20211017170022 64 11 4.3 9.6 0.00 0.35 0.00 59 1012.0
20211017165501 64 329 5.2 12.2 0.00 0.35 0.00 57 1012.0
20211017165005 64 326 5.2 13.9 0.00 0.35 0.00 57 1012.0
20211017164503 64 322 6.1 13.9 0.00 0.35 0.00 59 1012.0
20211017164005 63 351 7.0 13.0 0.00 0.35 0.00 57 1012.1
20211017163505 63 329 7.0 13.0 0.00 0.35 0.00 57 1012.2
20211017163004 64 295 5.2 13.9 0.00 0.35 0.00 61 1012.3
20211017162502 63 273 5.2 14.8 0.00 0.35 0.00 62 1012.4
20211017162010 64 290 6.1 14.8 0.00 0.35 0.00 59 1012.4
20211017161502 63 305 7.8 15.6 0.00 0.35 0.00 60 1012.4
20211017161005 63 294 7.0 15.6 0.00 0.35 0.00 58 1012.5
20211017160504 64 316 5.2 14.8 0.00 0.35 0.00 62 1012.5
20211017160005 63 348 5.2 11.3 0.00 0.35 0.00 63 1012.5
20211017155506 63 319 5.2 13.9 0.00 0.35 0.00 63 1012.5
20211017155004 63 306 4.3 13.9 0.00 0.35 0.00 60 1012.6
20211017154508 62 286 4.3 12.2 0.00 0.35 0.00 63 1012.7
20211017154004 62 348 5.2 12.2 0.00 0.35 0.00 63 1012.7
20211017153504 62 227 5.2 12.2 0.00 0.35 0.00 62 1012.8
20211017153005 63 323 5.2 12.2 0.00 0.35 0.00 65 1012.8
20211017152502 62 327 5.2 11.3 0.00 0.35 0.00 67 1013.0
20211017152001 62 273 5.2 12.2 0.00 0.35 0.00 71 1013.0
20211017151459 61 325 7.0 18.2 0.00 0.35 0.00 68 1013.0
20211017151003 61 329 8.7 18.2 0.00 0.35 0.00 64 1013.0
20211017150459 61 355 7.8 15.6 0.00 0.35 0.00 65 1013.0
20211017150002 61 311 7.8 17.4 0.00 0.35 0.00 66 1013.1
20211017145459 61 326 7.8 17.4 0.00 0.35 0.00 68 1013.0
20211017145002 61 261 7.8 14.8 0.00 0.35 0.00 72 1013.1
20211017144500 60 328 7.8 14.8 0.00 0.35 0.00 69 1013.0
20211017144001 60 315 7.0 13.0 0.00 0.35 0.00 69 1013.0
20211017143459 60 322 6.1 16.5 0.00 0.35 0.00 71 1013.1
20211017143002 60 298 6.1 16.5 0.00 0.35 0.00 70 1013.1
20211017142459 60 344 6.1 13.0 0.00 0.35 0.00 73 1013.0
20211017142010 60 331 6.1 13.0 0.00 0.35 0.00 71 1013.1
20211017141459 59 336 6.1 12.2 0.00 0.35 0.00 78 1013.1
20211017141004 59 288 5.2 13.0 0.00 0.35 0.00 76 1013.2
20211017140459 59 327 4.3 10.4 0.00 0.35 0.00 77 1013.2
20211017140001 59 250 4.3 9.6 0.00 0.35 0.00 76 1013.2
20211017135459 58 284 5.2 10.4 0.00 0.35 0.00 76 1013.2
20211017135001 58 306 5.2 11.3 0.00 0.35 0.00 78 1013.2
20211017134501 58 329 5.2 11.3 0.00 0.35 0.00 80 1013.3
20211017134000 57 299 5.2 13.9 0.00 0.35 0.00 80 1013.5
20211017133501 57 271 4.3 13.9 0.00 0.35 0.00 79 1013.5
20211017133001 57 315 3.5 8.7 0.00 0.35 0.00 81 1013.6
20211017132505 57 288 2.6 8.7 0.00 0.35 0.00 82 1013.5
20211017132001 57 301 3.5 11.3 0.00 0.35 0.00 83 1013.6
20211017131459 56 275 3.5 11.3 0.00 0.35 0.00 81 1013.6
20211017131003 56 214 3.5 8.7 0.00 0.35 0.00 85 1013.6
20211017130459 55 306 2.6 12.2 0.00 0.35 0.00 87 1013.5
20211017130002 55 338 2.6 12.2 0.00 0.35 0.00 86 1013.4
20211017125459 54 296 1.7 7.8 0.00 0.35 0.00 88 1013.4
20211017125002 54 276 1.7 7.8 0.00 0.35 0.00 87 1013.4
20211017124459 53 295 1.7 7.0 0.00 0.35 0.00 89 1013.4
20211017124000 53 301 0.9 7.0 0.00 0.35 0.00 88 1013.3
20211017123459 53 254 1.7 7.8 0.00 0.35 0.00 89 1013.3
20211017123002 52 325 1.7 7.8 0.00 0.35 0.00 90 1013.2
20211017122459 52 300 1.7 7.0 0.00 0.35 0.00 91 1013.1
20211017122002 52 242 1.7 7.0 0.00 0.35 0.00 91 1013.1
20211017121500 51 311 1.7 5.2 0.00 0.35 0.00 91 1013.1
20211017121002 51 294 1.7 5.2 0.00 0.35 0.00 91 1013.0
20211017120500 51 273 1.7 7.8 0.00 0.35 0.00 91 1013.0
20211017120008 51 256 1.7 7.0 0.00 0.35 0.00 91 1013.0
20211017115500 51 283 0.9 7.0 0.00 0.35 0.00 91 1012.9
20211017115000 51 267 0.9 4.3 0.00 0.35 0.00 92 1012.8
20211017114459 51 302 0.9 2.6 0.00 0.35 0.00 92 1012.8
20211017114002 51 302 1.7 4.3 0.00 0.35 0.00 92 1012.7
20211017113501 50 271 1.7 4.3 0.00 0.35 0.00 92 1012.7
20211017113001 50 314 0.9 4.3 0.00 0.35 0.00 92 1012.7
20211017112459 50 297 0.9 3.5 0.00 0.35 0.00 92 1012.7
20211017112002 50 278 0.9 3.5 0.00 0.35 0.00 92 1012.6
20211017111500 50 311 0.9 5.2 0.00 0.35 0.00 92 1012.6
20211017111001 50 266 0.9 3.5 0.00 0.35 0.00 92 1012.6
20211017110459 50 269 0.9 2.6 0.00 0.35 0.00 92 1012.5
20211017110002 50 268 0.9 2.6 0.00 0.35 0.00 92 1012.5
20211017105500 50 297 0.9 3.5 0.00 0.35 0.00 92 1012.4
20211017105003 50 294 0.9 3.5 0.00 0.35 0.00 92 1012.4
20211017104459 50 309 0.9 2.6 0.00 0.35 0.00 92 1012.3
20211017104001 50 313 0.0 2.6 0.00 0.35 0.00 91 1012.3
20211017103501 50 313 0.0 1.7 0.00 0.35 0.00 91 1012.4
20211017103001 51 313 0.9 3.5 0.00 0.35 0.00 90 1012.4
20211017102500 51 312 0.9 3.5 0.00 0.35 0.00 90 1012.3
20211017102001 51 304 0.9 2.6 0.00 0.35 0.00 90 1012.3
20211017101501 51 308 0.9 5.2 0.00 0.35 0.00 89 1012.3
20211017101002 51 311 0.9 2.6 0.00 0.35 0.00 90 1012.2
20211017100459 51 306 1.7 4.3 0.00 0.35 0.00 90 1012.1
20211017100005 51 302 0.9 7.8 0.00 0.35 0.00 90 1012.1
20211017095459 51 288 0.9 7.8 0.00 0.35 0.00 89 1012.1
20211017095002 52 303 0.9 7.0 0.00 0.35 0.00 89 1012.1
20211017094501 51 333 0.9 3.5 0.00 0.35 0.00 90 1012.0
20211017094005 51 333 0.9 3.5 0.00 0.35 0.00 90 1012.0
20211017093459 51 277 1.7 5.2 0.00 0.35 0.00 91 1011.9
20211017093005 51 322 1.7 5.2 0.00 0.35 0.00 91 1012.0
20211017092501 51 325 0.9 7.8 0.00 0.35 0.00 91 1011.9
20211017092001 51 306 0.9 7.8 0.00 0.35 0.00 91 1011.9
20211017091501 52 317 0.9 3.5 0.00 0.35 0.00 90 1011.9
20211017091004 52 276 0.9 3.5 0.00 0.35 0.00 90 1011.9
20211017090500 52 325 1.7 5.2 0.00 0.35 0.00 90 1011.9
20211017090003 52 348 1.7 5.2 0.00 0.35 0.00 90 1011.8
20211017085459 52 317 1.7 4.3 0.00 0.35 0.00 91 1011.7
20211017085008 52 315 1.7 7.8 0.00 0.35 0.00 91 1011.7
20211017084500 52 335 1.7 7.8 0.00 0.35 0.00 91 1011.6
20211017084005 52 321 1.7 4.3 0.00 0.35 0.00 91 1011.7
20211017083500 52 304 1.7 9.6 0.00 0.35 0.00 91 1011.7
20211017083001 52 317 1.7 9.6 0.00 0.35 0.00 91 1011.8
20211017082459 52 316 1.7 7.0 0.00 0.35 0.00 92 1011.8
20211017082001 52 291 1.7 4.3 0.00 0.35 0.00 92 1011.8
20211017081500 52 264 0.9 5.2 0.00 0.35 0.00 93 1011.8
20211017081002 52 328 0.9 4.3 0.00 0.35 0.00 93 1011.8
20211017080459 52 271 0.9 5.2 0.00 0.35 0.00 94 1011.7
20211017080003 52 321 0.9 3.5 0.00 0.35 0.00 94 1011.8
20211017075459 52 319 0.9 3.5 0.00 0.35 0.00 94 1011.7
20211017075001 52 306 0.9 4.3 0.00 0.35 0.00 94 1011.8
20211017074500 52 302 0.9 4.3 0.00 0.35 0.00 94 1011.7
20211017074002 52 319 0.9 1.7 0.00 0.35 0.00 94 1011.7
20211017073459 52 319 0.9 3.5 0.00 0.35 0.00 94 1011.7
20211017073004 52 319 0.9 3.5 0.00 0.35 0.00 94 1011.7
20211017072459 52 326 0.9 5.2 0.00 0.35 0.00 94 1011.6
20211017072004 52 299 0.9 5.2 0.00 0.35 0.00 94 1011.6
20211017071500 52 312 0.9 3.5 0.00 0.35 0.00 94 1011.6
20211017071005 52 312 0.9 3.5 0.00 0.35 0.00 94 1011.5
20211017070523 52 313 0.9 1.7 0.00 0.35 0.00 94 1011.6
20211017065503 52 312 0.0 2.6 0.00 0.35 0.00 93 1011.6
20211017065009 52 314 0.0 0.9 0.00 0.35 0.00 93 1011.6
20211017064510 52 314 0.9 1.7 0.00 0.35 0.00 93 1011.6
20211017064010 52 314 0.9 2.6 0.00 0.35 0.00 93 1011.5
20211017063503 52 315 0.0 1.7 0.00 0.35 0.00 92 1011.5
20211017063014 52 315 0.0 1.7 0.00 0.35 0.00 92 1011.5
20211017062507 52 315 0.9 2.6 0.00 0.35 0.00 92 1011.5
20211017062012 52 315 0.9 2.6 0.00 0.35 0.00 91 1011.5
20211017061510 53 328 0.9 2.6 0.00 0.35 0.00 91 1011.6
20211017061011 52 326 0.9 2.6 0.00 0.35 0.00 90 1011.6
20211017060506 53 313 0.9 3.5 0.00 0.35 0.00 90 1011.6
20211017060026 53 319 0.9 4.3 0.00 0.35 0.00 90 1011.6
20211017055504 53 327 0.9 4.3 0.00 0.35 0.00 90 1011.6
20211017055005 53 308 0.9 3.5 0.00 0.35 0.00 89 1011.7
20211017054503 53 319 1.7 4.3 0.00 0.35 0.00 89 1011.7
20211017054012 54 315 1.7 4.3 0.00 0.35 0.00 89 1011.5
20211017053508 54 290 0.9 4.3 0.00 0.35 0.00 88 1011.6
20211017053019 54 306 0.9 8.7 0.00 0.35 0.00 88 1011.6
20211017052509 54 309 1.7 8.7 0.00 0.35 0.00 89 1011.6
20211017052009 54 335 1.7 7.0 0.00 0.35 0.00 88 1011.6
20211017051510 54 320 2.6 7.8 0.00 0.35 0.00 88 1011.7
20211017051005 55 271 2.6 9.6 0.00 0.35 0.00 88 1011.5
20211017050503 55 317 1.7 7.0 0.00 0.35 0.00 88 1011.5
20211017050018 55 294 2.6 9.6 0.00 0.35 0.00 89 1011.5
20211017045506 55 327 3.5 9.6 0.00 0.35 0.00 88 1011.5
20211017045011 56 335 4.3 11.3 0.00 0.35 0.00 88 1011.6
20211017044505 56 334 4.3 11.3 0.00 0.35 0.00 87 1011.5
20211017044012 56 319 3.5 11.3 0.00 0.35 0.00 88 1011.3
20211017043508 56 348 3.5 11.3 0.00 0.35 0.00 88 1011.3
20211017043018 56 280 3.5 8.7 0.00 0.35 0.00 88 1011.4
20211017042510 57 306 6.1 11.3 0.00 0.35 0.00 87 1011.2
20211017042004 57 325 6.1 11.3 0.00 0.35 0.00 88 1011.3
20211017041511 57 345 5.2 10.4 0.00 0.35 0.00 89 1011.2
20211017041007 57 313 4.3 11.3 0.00 0.35 0.00 91 1011.2
20211017040505 57 317 2.6 11.3 0.00 0.35 0.00 93 1011.1
20211017040025 57 329 2.6 7.0 0.00 0.35 0.00 92 1011.2
20211017035507 57 297 2.6 9.6 0.00 0.35 0.35 92 1011.2
20211017035004 57 272 2.6 9.6 0.00 0.35 0.35 91 1011.2
20211017034504 58 319 3.5 9.6 0.00 0.35 0.35 90 1011.1
20211017034005 59 273 5.2 12.2 0.00 0.35 0.35 87 1011.3
20211017033506 59 330 5.2 14.8 0.00 0.35 0.35 87 1011.1
20211017033004 58 350 4.3 14.8 0.00 0.35 0.35 92 1011.2
20211017032505 59 328 4.3 10.4 0.00 0.35 0.35 92 1011.2
20211017032003 59 295 4.3 12.2 0.00 0.35 0.35 93 1011.1
20211017031501 59 296 6.1 13.0 0.00 0.35 0.35 93 1010.9
20211017031007 59 360 6.1 13.0 0.00 0.35 0.35 94 1010.6
20211017030504 59 323 3.5 12.2 0.00 0.35 0.35 95 1010.5
20211017030017 59 278 2.6 12.2 0.00 0.35 0.35 95 1010.6
20211017025502 60 324 2.6 7.8 0.00 0.35 0.35 95 1010.5
20211017025005 60 311 2.6 7.8 0.00 0.35 0.35 95 1010.5
20211017024509 60 334 2.6 7.8 0.00 0.35 0.35 95 1010.3
20211017024004 60 309 2.6 7.8 0.00 0.35 0.35 95 1010.3
20211017023505 60 317 2.6 5.2 0.01 0.35 0.35 96 1010.4
20211017023008 59 339 1.7 5.2 0.01 0.35 0.35 95 1010.3
20211017022505 59 320 1.7 5.2 0.01 0.35 0.35 95 1010.5
20211017022003 59 270 1.7 5.2 0.02 0.35 0.35 95 1010.4
20211017021501 59 335 2.6 5.2 0.03 0.35 0.35 94 1010.3
20211017021010 59 333 2.6 7.0 0.04 0.35 0.35 94 1010.4
20211017020503 59 329 3.5 7.8 0.06 0.35 0.35 94 1010.2
20211017020019 59 329 3.5 7.8 0.06 0.35 0.35 94 1010.2
20211017015504 60 351 3.5 9.6 0.07 0.35 0.35 94 1010.2
20211017015005 60 5 4.3 9.6 0.08 0.35 0.35 94 1010.1
20211017014501 60 300 4.3 10.4 0.09 0.35 0.35 94 1010.1
20211017014007 60 344 5.2 11.3 0.10 0.35 0.35 94 1010.1
20211017013505 60 331 6.1 11.3 0.09 0.34 0.34 94 1010.0
20211017013017 60 350 7.0 15.6 0.09 0.34 0.34 94 1010.2
20211017012504 60 304 6.1 15.6 0.10 0.34 0.34 95 1010.2
20211017012005 60 300 5.2 22.6 0.10 0.33 0.33 95 1009.9
20211017011501 61 345 4.3 22.6 0.10 0.32 0.32 96 1009.9
20211017011011 61 5 2.6 7.8 0.09 0.30 0.30 96 1009.8
20211017010503 61 323 0.9 3.5 0.08 0.29 0.29 96 1009.8
20211017010008 61 324 0.9 3.5 0.09 0.29 0.29 96 1009.7
20211017005503 61 323 1.7 3.5 0.09 0.28 0.28 96 1009.2
20211017005007 61 325 1.7 5.2 0.09 0.27 0.27 96 1009.2
20211017004508 61 323 0.9 5.2 0.09 0.26 0.26 96 1009.3
20211017004009 61 360 0.9 4.3 0.10 0.25 0.25 96 1009.1
20211017003501 61 9 1.7 3.5 0.11 0.25 0.25 95 1009.6
20211017003009 61 9 1.7 4.3 0.14 0.25 0.25 95 1009.2
20211017002504 61 336 1.7 5.2 0.15 0.24 0.24 95 1009.0
20211017002008 61 333 2.6 7.0 0.16 0.23 0.23 94 1009.2
20211017001505 61 329 3.5 9.6 0.17 0.22 0.22 94 1009.4
20211017001002 61 327 3.5 9.6 0.17 0.21 0.21 94 1009.6
20211017000507 61 320 4.3 11.3 0.19 0.21 0.21 94 1009.4
20211017000013 61 333 5.2 11.3 0.20 0.20 0.20 94 1008.9
20211016235501 61 344 3.5 9.6 0.19 0.19 0.19 94 1009.4
20211016235006 61 323 3.5 9.6 0.18 0.18 0.18 94 1009.3
20211016234508 61 328 2.6 7.0 0.16 0.16 0.16 94 1009.3
20211016234004 61 327 2.6 7.0 0.15 0.15 0.15 93 1009.2
20211016233503 61 329 1.7 7.0 0.14 0.14 0.14 93 1008.9
20211016233025 62 339 1.7 5.2 0.11 0.11 0.11 93 1009.0
20211016232502 62 321 1.7 4.3 0.09 0.09 0.09 92 1008.8
20211016232004 62 289 1.7 4.3 0.06 0.06 0.06 91 1009.1
20211016231507 63 288 3.5 11.3 0.05 0.05 0.05 89 1008.5
20211016231003 63 5 4.3 11.3 0.04 0.04 0.04 87 1008.2
20211016230501 64 315 3.5 10.4 0.02 0.02 0.02 85 1008.0
20211016230004 65 260 5.2 10.4 0.00 0.00 0.00 83 1007.9
20211016225504 66 311 7.8 13.0 0.00 0.00 0.00 80 1007.7
20211016225008 67 30 7.0 13.0 0.00 0.00 0.00 77 1007.7
20211016224502 68 349 4.3 11.3 0.00 0.00 0.00 75 1007.7
20211016224002 68 329 5.2 12.2 0.00 0.00 0.00 73 1007.5
20211016223501 68 355 5.2 15.6 0.00 0.00 0.00 70 1007.0
20211016223003 68 319 4.3 8.7 0.00 0.00 0.00 70 1006.8
20211016222504 68 350 4.3 9.6 0.00 0.00 0.00 70 1006.9
20211016222009 68 355 5.2 12.2 0.00 0.00 0.00 70 1006.7
20211016221501 69 333 7.0 18.2 0.00 0.00 0.00 69 1006.7
20211016221009 69 311 7.8 18.2 0.00 0.00 0.00 68 1006.8
20211016220502 69 360 7.8 18.2 0.00 0.00 0.00 67 1006.4
20211016220011 69 266 9.6 20.0 0.00 0.00 0.00 66 1006.2
20211016215501 70 15 10.4 20.0 0.00 0.00 0.00 65 1006.1
20211016215009 70 323 10.4 18.2 0.00 0.00 0.00 64 1006.0
20211016214502 71 324 11.3 21.7 0.00 0.00 0.00 63 1005.8
20211016214004 71 315 10.4 21.7 0.00 0.00 0.00 64 1006.0
20211016213501 71 331 10.4 22.6 0.00 0.00 0.00 63 1005.8
20211016213010 72 301 8.7 20.9 0.00 0.00 0.00 66 1005.6
20211016212504 74 307 7.8 17.4 0.00 0.00 0.00 70 1005.4
20211016212010 75 287 5.2 19.1 0.00 0.00 0.00 69 1005.2
20211016211502 77 281 1.7 14.8 0.00 0.00 0.00 78 1004.8
20211016211004 78 241 1.7 4.3 0.00 0.00 0.00 78 1004.1
20211016210503 78 209 2.6 6.1 0.00 0.00 0.00 77 1004.0
20211016210005 78 204 1.7 6.1 0.00 0.00 0.00 77 1004.0
20211016205501 78 193 2.6 6.1 0.00 0.00 0.00 76 1004.0
20211016205005 78 193 2.6 8.7 0.00 0.00 0.00 77 1003.9
20211016204502 78 224 2.6 8.7 0.00 0.00 0.00 76 1003.8
20211016204008 78 254 3.5 11.3 0.00 0.00 0.00 76 1003.8
20211016203501 78 238 2.6 11.3 0.00 0.00 0.00 75 1003.9
20211016203033 79 189 3.5 8.7 0.00 0.00 0.00 75 1004.0
20211016202503 79 223 4.3 10.4 0.00 0.00 0.00 74 1003.9
20211016202002 79 183 3.5 10.4 0.00 0.00 0.00 74 1003.9
20211016201508 80 189 3.5 8.7 0.00 0.00 0.00 72 1004.0
20211016201008 80 205 3.5 8.7 0.00 0.00 0.00 71 1003.9
20211016200502 80 244 3.5 8.7 0.00 0.00 0.00 72 1003.9
20211016200013 80 235 3.5 7.8 0.00 0.00 0.00 71 1004.0
20211016195504 80 254 2.6 7.8 0.00 0.00 0.00 69 1003.9
20211016195004 80 217 2.6 8.7 0.00 0.00 0.00 70 1003.9
20211016194512 80 248 2.6 8.7 0.00 0.00 0.00 68 1003.9
20211016194008 81 202 3.5 7.8 0.00 0.00 0.00 66 1003.9
20211016193502 82 244 2.6 7.8 0.00 0.00 0.00 63 1004.0
20211016193009 83 275 3.5 18.2 0.00 0.00 0.00 60 1004.0
20211016192501 83 192 3.5 17.4 0.00 0.00 0.00 60 1004.0
20211016192007 83 240 3.5 10.4 0.00 0.00 0.00 59 1003.9
20211016191501 83 316 3.5 10.4 0.00 0.00 0.00 60 1003.9
20211016191010 83 37 3.5 11.3 0.00 0.00 0.00 58 1003.9
20211016190503 84 139 2.6 11.3 0.00 0.00 0.00 59 1003.9
20211016190022 83 315 3.5 11.3 0.00 0.00 0.00 60 1003.9
20211016185503 83 195 4.3 13.9 0.00 0.00 0.00 60 1003.9
20211016185009 83 261 4.3 10.4 0.00 0.00 0.00 60 1003.8
20211016184512 83 184 3.5 9.6 0.00 0.00 0.00 61 1004.0
20211016184005 83 265 3.5 8.7 0.00 0.00 0.00 59 1004.1
20211016183502 83 230 4.3 13.0 0.00 0.00 0.00 60 1004.2
20211016183003 83 235 5.2 14.8 0.00 0.00 0.00 58 1004.3
20211016182504 83 189 4.3 14.8 0.00 0.00 0.00 60 1004.4
20211016182007 83 207 3.5 11.3 0.00 0.00 0.00 61 1004.5
20211016181501 83 252 3.5 8.7 0.00 0.00 0.00 61 1004.5
20211016181007 83 258 3.5 8.7 0.00 0.00 0.00 60 1004.6
20211016180501 84 201 2.6 8.7 0.00 0.00 0.00 61 1004.7
20211016180012 83 258 2.6 7.8 0.00 0.00 0.00 63 1004.8
20211016175501 83 5 2.6 7.8 0.00 0.00 0.00 62 1004.8
20211016175010 83 213 4.3 17.4 0.00 0.00 0.00 66 1004.9
20211016174501 82 210 5.2 18.2 0.00 0.00 0.00 61 1005.0
20211016174008 82 184 5.2 14.8 0.00 0.00 0.00 61 1005.0
20211016173503 82 242 5.2 12.2 0.00 0.00 0.00 63 1005.2
20211016173003 82 207 4.3 12.2 0.00 0.00 0.00 64 1005.4
20211016172501 82 213 3.5 11.3 0.00 0.00 0.00 64 1005.5
20211016172011 82 217 3.5 9.6 0.00 0.00 0.00 63 1005.7
20211016171507 82 179 2.6 8.7 0.00 0.00 0.00 65 1005.7
20211016171004 81 256 4.3 12.2 0.00 0.00 0.00 66 1006.0
20211016170502 81 263 5.2 12.2 0.00 0.00 0.00 64 1006.1